Regional Weather Roundup
Issued by NWS

Home | Current Version | Previous Version | Text Only | Print | Product List | Glossary Off
Versions: 1 2 3 4 5 6 7 8 9 10 11 12 13 14 15 16 17 18 19 20 21 22 23 24 25 26 27 28 29 30 31 32 33 34 35 36 37 38 39 40 41 42 43 44 45 46 47 48 49 50

000
ASUS43 KLOT 292200
RWRIL

ILLINOIS REGIONAL WEATHER ROUNDUP
NATIONAL WEATHER SERVICE CHICAGO/ROMEOVILLE IL
500 PM CDT FRI AUG 29 2014

NOTE: "FAIR" INDICATES FEW OR NO CLOUDS BELOW 12,000 FEET WITH NO
SIGNIFICANT WEATHER AND/OR OBSTRUCTIONS TO VISIBILITY.

* THESE STATIONS ARE NOT UNDER NWS QUALITY CONTROL. THEY ALSO MAY NOT
  REPORT WEATHER SUCH AS PRECIPITATION OR FOG.

ILZ001-002-007-009-015-016-024-292300-
NORTHWEST ILLINOIS

CITY           SKY/WX    TMP DP  RH WIND       PRES   REMARKS
MOLINE         MOSUNNY   86  72  62 SE8       29.82S HX  92
STERLING*      MOSUNNY   86  72  62 S7        29.85S HX  92
$$

ILZ003-004-008-010-011-017-018-292300-
NORTH CENTRAL ILLINOIS

CITY           SKY/WX    TMP DP  RH WIND       PRES   REMARKS
ROCKFORD       MOSUNNY   84  71  65 S15       29.87R HX  89
ROCHELLE*      SUNNY     84  71  64 S10G16    29.87S HX  88
$$

ILZ005-006-012>014-019>023-292300-
NORTHEAST ILLINOIS

CITY           SKY/WX    TMP DP  RH WIND       PRES   REMARKS
CHICAGO-OHARE  MOSUNNY   86  69  56 S14       29.88F HX  90
CHICAGO-MIDWAY PTSUNNY   87  72  60 S13       29.89S HX  93
AURORA         SUNNY     85  71  63 SE15      29.88S HX  90
WAUKEGAN       PTSUNNY   78  71  79 SE12      29.88S HX  80
DUPAGE AIRPORT MOSUNNY   86  71  60 S12       29.88S HX  91
WHEELING       MOSUNNY   87  71  58 S15       29.89S HX  93
NORTHERLY ISL    N/A     79  69  71 SE12        N/A  HX  81
$$

LMZ740>746-292300-
SOUTHERN LAKE MICHIGAN

STATION/POSITION SKY/WX   TEMP    WIND        PRES    VSBY  WAVE
                          AIR SEA DIR/SP/G                  HT/PER
                          (F)     (DEG/KT/KT) (MB)    (MI)  (FT/S)
SOUTHERN BUOY              71 69  150/ 16/ 17 1012.6F         3/ 5
WAUKEGAN HARBOR            77     150/ 19/ 22   N/A
HARRISON CRIB              77     140/ 17/ 20   N/A
BURNHAM HARBOR             78     130/ 10/ 11   N/A
CALUMET HARBOR             79     130/  4/  5 1011.8F
MICHIGAN CITY              79     130/ 13/ 18   N/A
MICHIGAN CITY 6N           76 72  150/ 10/ 12   N/A           1/ 2
ST. JOSEPH                 75 71  150/ 14/ 17   N/A           1/ 3
$$

ILZ025>027-034>036-040-047-049-050-058-095>099-292300-
WEST-CENTRAL ILLINOIS

CITY           SKY/WX    TMP DP  RH WIND       PRES   REMARKS
QUINCY         PTSUNNY   84  68  58 S7        29.82S HX  87
MACOMB*        SUNNY     84  68  58 S13G18    29.84F HX  87
$$

ILZ028>032-037-038-041>044-048-051>054-059>061-292300-
CENTRAL ILLINOIS

CITY           SKY/WX    TMP DP  RH WIND       PRES   REMARKS
DECATUR        SUNNY     88  67  49 S14G22    29.89S HX  91
PEORIA         PTSUNNY   84  71  65 S8        29.85F HX  89
SPRINGFIELD    MOSUNNY   87  70  56 S12G22    29.86F HX  92
TAYLORVILLE    NOT AVBL
$$

ILZ033-039-045-046-055>057-062-063-292300-
EAST-CENTRAL ILLINOIS

CITY           SKY/WX    TMP DP  RH WIND       PRES   REMARKS
CHAMPAIGN      MOSUNNY   86  71  60 S13       29.91S HX  91
MATTOON        SUNNY     86  68  54 S10G17    29.91R HX  89
$$

ILZ079-100>102-292300-
SOUTHWEST ILLINOIS

CITY           SKY/WX    TMP DP  RH WIND       PRES   REMARKS
ALTON            N/A     88  61  40 SE10      29.86F HX  88
BELLEVILLE     SUNNY     88  69  53 E12       29.86S HX  92
CAHOKIA*       SUNNY     89  67  47 SE14G21   29.85S HX  92
$$

ILZ064>066-069>071-074>076-080>082-084>086-088>090-092>094-292300-
SOUTH-CENTRAL ILLINOIS

CITY           SKY/WX    TMP DP  RH WIND       PRES   REMARKS
CARBONDALE     SUNNY     87  67  51 S13       29.90S HX  90
MARION         SUNNY     91  66  43 S14       29.92S HX  94
MT. VERNON     SUNNY     88  70  55 S9        29.91S HX  92
$$

ILZ067-068-072-073-078-083-087-091-292300-
SOUTHEAST ILLINOIS

CITY           SKY/WX    TMP DP  RH WIND       PRES   REMARKS
LAWRENCEVILLE  MOSUNNY   84  73  69 SE7       29.92F HX  90
ROBINSON*      MOSUNNY   85  73  66 S9        29.93S THUNDER HX  92
$$

ABBREVIATIONS USED IN REMARKS
   TC - TEMPERATURE IN CELSIUS
  WCI - WIND CHILL INDEX
   HX - HEAT INDEX
  VSB - VISIBILITY
$$



USA.gov is the U.S. government's official web portal to all federal, state and local government web resources and services.